Location: Unspecified
(0.0000°N, 0.0000°E)
Time: 16:01:56
(UTC-05:00)

Cosmos 1674 - Visible Passes

Search period start: 25 September 2018 00:00
Search period end: 05 October 2018 00:00
Orbit: 497 x 520 km, 82.5° (Epoch: 24 September)

Date Brightness Start Highest point End Pass type
(mag) Time Alt. Az. Time Alt. Az. Time Alt. Az.
01 Oct 5.3 14:25:28 10° N 14:25:37 11° N 14:25:37 11° N visible
02 Oct 2.5 14:08:14 10° N 14:12:01 72° E 14:15:48 10° S visible
03 Oct 2.8 13:51:06 10° N 13:54:46 48° E 13:58:26 10° SSE visible
04 Oct 3.3 13:34:05 10° NNE 13:37:32 33° E 13:40:58 10° SSE visible
